Tracking 19817 objects as of 18-Aug-2019
HD Live streaming from Space Station
objects crossing your sky now

COSMOS 2251 DEB

Track COSMOS 2251 DEB now!
10-day predictions


NORAD ID: 33944
Int'l Code: 1993-036EZ
Perigee: 702.2 km
Apogee: 874.4 km
Inclination: 74.0 °
Period: 100.5 minutes
Semi major axis: 7159 km
RCS: 0.0636 m2 (small)
Launch date: June 16, 1993
Source: Commonwealth of Independent States (former USSR) (CIS)
Launch site: PLESETSK MISSILE AND SPACE COMPLEX (PKMTR)

Note: This is SATELLITE DEBRIS
aabbcc
Your satellite tracking list
Your tracking list is empty




NASA's NSSDC Master Catalog

Two Line Element Set (TLE):
1 33944U 93036EZ  19228.42968424 +.00000062 +00000-0 +29851-4 0  9992
2 33944 074.0400 218.9421 0120306 164.7440 312.3884 14.33168420549026
Source of the keplerian elements: AFSPC